Location: Poughquag
(41.6090°N, 73.6820°W)
Time: 11:52:52
(UTC-04:00)

A-11 Canister half - Pass Details

Date: 01 June 2020
Orbit: 1527 x 1682 km, 47.3° (Epoch: 06 July)

Event Time Altitude Azimuth Distance (km) Brightness Sun altitude
Rises 06:01:39 0° 201° (SSW) 4,674 11.1 5.6°
Reaches altitude 10° 06:05:05 10° 192° (SSW) 3,687 10.7 6.2°
Maximum altitude 06:13:01 33° 132° (SE) 2,341 10.4 7.5°
Drops below altitude 10° 06:21:00 10° 73° (ENE) 3,718 14.2 8.9°
Sets 06:24:26 0° 65° (ENE) 4,719 13.9 9.5°
